Location: Terschelling
(53.4100°N, 5.3500°E)
Time: 21:29:03
(UTC+02:00)

Envisat - Visible Passes

Search period start: 29 May 2023 00:00
Search period end: 08 June 2023 00:00
Orbit: 763 x 765 km, 98.2° (Epoch: 29 May)

Date Brightness Start Highest point End Pass type
(mag) Time Alt. Az. Time Alt. Az. Time Alt. Az.
29 May 5.5 04:16:27 10° NE 04:19:44 17° E 04:22:59 10° SE visible
01 Jun 5.6 04:04:36 10° NE 04:07:07 14° E 04:09:37 10° ESE visible
04 Jun 5.9 03:53:21 10° ENE 03:54:29 11° E 03:55:37 10° E visible
06 Jun 5.5 04:16:18 10° NE 04:19:37 17° E 04:22:54 10° SE visible
